GFSSE_250_spd_057.txt.gz
Wind_Speed
21 22 22 23 23 20 15 8 7 12 15 15 14 16 17 17 18 20 21 21 23 23 27 25 14 21 20 14 12 11 2 7 8 5 5 1 2 2 2 2 5 8 8
17 16 15 15 13 13 6 6 10 12 11 12 12 14 16 17 17 23 26 28 25 24 26 24 17 22 19 17 13 10 3 7 6 7 5 5 2 2 3 2 6 9 7
15 14 13 11 10 7 7 10 11 13 16 16 14 12 14 17 18 22 26 27 26 24 25 20 19 22 18 15 12 9 3 7 7 10 9 8 2 1 1 4 6 7 7
17 16 15 13 10 9 11 14 16 17 15 12 8 5 6 11 16 34 26 21 25 26 23 19 20 22 18 17 13 7 6 3 3 8 7 7 8 6 4 4 5 8 8
20 19 17 15 11 14 18 19 19 18 16 13 8 3 9 15 22 33 26 26 25 24 26 19 24 20 19 15 12 9 7 3 4 5 6 6 5 7 9 7 8 10 14
22 21 20 17 19 22 25 24 24 25 21 15 8 11 19 23 23 28 29 28 26 21 21 29 21 14 12 14 14 13 12 5 1 1 4 4 3 2 2 4 5 10 13
24 22 21 24 31 35 38 37 35 34 29 17 12 17 24 25 27 28 26 26 26 29 27 25 21 19 12 11 13 13 10 7 4 3 1 1 1 2 4 8 5 8 9
26 23 23 28 34 33 33 36 37 39 37 23 18 19 27 28 28 27 28 22 26 25 25 21 16 13 11 10 14 13 11 4 5 6 6 2 3 5 8 8 8 8 7
25 24 26 27 32 34 36 36 38 38 38 32 24 22 18 25 25 22 24 24 23 25 24 21 15 7 5 9 13 16 13 7 5 6 8 6 5 4 6 6 9 7 7
24 20 23 26 31 32 35 35 34 33 31 32 28 22 20 15 15 19 19 20 24 21 18 14 12 7 6 9 8 16 14 9 8 9 9 7 5 5 7 4 7 7 7
13 20 20 23 25 22 23 26 27 28 27 26 26 22 15 10 11 13 13 20 23 18 13 10 10 8 2 3 5 12 11 11 8 8 10 10 4 5 6 8 7 9 10
14 15 17 19 16 16 21 20 20 22 21 22 21 20 15 9 10 10 13 17 15 13 13 11 5 6 6 6 3 8 9 10 11 10 10 11 8 8 9 11 12 11 11
11 10 12 11 6 12 11 18 14 19 16 15 15 13 13 11 6 9 9 8 12 14 8 10 11 10 7 3 2 1 7 11 10 12 14 11 10 12 12 14 13 14 10
4 8 6 5 5 11 9 8 11 10 10 9 9 9 10 12 10 4 7 10 14 13 10 6 10 4 1 4 8 7 9 11 10 9 12 14 16 18 18 20 23 22 21
8 12 10 12 10 14 5 6 7 10 7 4 2 5 5 10 11 12 5 5 9 15 15 13 10 6 7 5 3 10 13 11 10 11 10 12 16 22 22 24 22 23 22
12 14 12 11 4 5 8 10 13 12 6 3 4 1 6 6 9 8 10 6 4 9 11 15 17 16 10 6 10 7 14 6 5 10 11 8 10 14 17 17 19 23 25
21 13 17 7 11 16 15 11 15 15 11 2 6 2 2 2 3 4 3 6 7 3 10 12 14 15 16 12 9 8 3 3 5 6 8 12 15 17 21 24 25 26 25
30 25 20 15 12 19 22 13 12 21 12 10 11 7 6 6 2 1 1 2 1 2 3 8 9 8 11 9 7 8 7 8 8 11 13 16 20 20 24 25 27 26 26
32 31 29 24 21 15 31 23 18 19 17 12 13 11 16 10 10 10 7 5 4 4 7 6 4 4 6 8 6 9 8 10 13 16 19 20 22 24 27 26 26 24 23
32 32 32 26 25 22 19 26 22 17 19 22 23 18 16 16 14 13 14 16 15 11 11 9 10 11 9 7 7 13 16 14 16 17 22 26 27 26 27 27 27 24 27
28 35 31 34 24 21 19 20 24 22 25 22 25 22 19 19 22 18 18 17 16 15 14 18 15 13 14 14 13 15 23 22 21 23 24 24 26 27 28 25 24 28 31
23 34 29 29 26 30 13 17 25 23 26 28 26 24 18 19 24 24 22 22 23 20 19 17 23 22 22 18 21 23 29 23 22 22 24 27 26 27 24 23 28 19 17
16 18 29 28 29 20 21 15 18 23 25 24 25 25 25 24 23 18 13 7 16 22 21 21 23 20 25 22 26 29 24 25 26 27 26 27 27 28 24 23 25 21 23
27 23 18 23 26 22 15 14 15 20 17 19 26 30 25 27 25 22 19 22 26 23 25 30 29 27 21 25 35 30 25 25 24 26 24 25 27 29 24 24 23 23 22
36 32 32 26 25 30 24 17 16 20 18 21 25 26 31 27 25 22 23 28 35 32 30 30 32 32 22 32 31 28 24 26 27 26 23 26 26 26 23 23 23 24 24
30 32 31 29 21 25 27 24 16 17 20 24 23 25 27 23 28 31 28 35 42 37 36 35 36 31 32 32 31 26 24 24 26 27 26 32 29 26 24 24 23 24 26

GFSSE_250_spd_060.txt.gz
Wind_Speed
7 7 8 12 14 12 8 7 8 9 11 15 16 18 21 20 17 16 17 20 25 26 28 23 19 22 21 16 9 7 6 8 5 2 2 2 5 6 5 7 9 12 11
10 8 5 4 2 3 3 5 9 12 13 13 14 16 19 19 18 18 22 20 27 27 28 24 16 20 21 18 11 9 6 7 5 6 2 1 3 5 6 7 10 11 10
17 15 11 10 11 10 10 10 10 10 10 10 10 13 16 18 19 20 23 25 32 28 29 26 16 27 20 17 11 5 8 8 10 11 10 3 2 2 6 8 10 11 12
21 22 21 19 18 18 18 17 13 7 3 3 3 8 14 17 19 21 24 29 27 28 26 20 20 24 20 15 11 9 9 7 7 7 7 9 7 6 7 6 10 13 13
28 28 25 27 29 29 27 25 20 12 9 8 7 12 15 16 19 24 27 29 29 26 23 21 22 22 20 17 11 10 10 5 6 5 7 6 4 6 5 6 9 13 14
28 29 30 35 37 36 35 34 27 18 16 13 13 19 17 19 27 27 31 31 26 25 20 23 26 23 19 15 13 14 8 4 1 2 4 5 3 1 4 6 7 11 12
30 31 30 36 38 38 38 40 35 26 23 21 20 22 23 21 31 31 27 23 24 23 20 21 26 20 17 13 17 15 15 11 4 3 2 4 4 5 7 10 13 12 14
31 27 30 33 36 37 38 39 40 30 28 30 26 26 29 29 30 29 29 26 25 25 26 23 18 14 9 11 12 13 11 8 6 7 5 1 5 7 9 11 14 12 13
25 29 30 30 35 35 35 36 38 37 29 30 30 26 26 32 33 29 24 27 28 27 25 19 16 12 7 5 11 13 12 8 5 5 5 5 3 5 7 5 10 11 12
24 25 25 25 31 32 31 31 34 36 34 29 30 24 24 30 26 21 25 24 25 24 23 15 10 5 2 4 6 13 14 9 7 7 6 8 4 4 5 5 7 10 12
16 18 18 20 28 25 28 25 30 30 30 26 23 23 22 22 19 19 20 22 24 22 20 14 8 4 4 7 5 11 13 11 9 6 5 7 4 4 3 7 8 10 12
11 12 14 13 12 13 18 16 20 23 24 22 19 17 14 13 11 11 18 18 21 19 15 9 10 7 5 7 6 9 10 10 11 8 6 7 7 6 6 9 10 9 11
8 8 7 12 13 11 12 12 14 15 18 19 18 15 12 12 11 12 14 17 18 14 14 14 11 8 6 7 2 2 4 6 7 10 12 12 9 8 10 12 12 13 15
13 9 8 5 10 11 6 15 12 11 11 11 14 16 18 11 8 11 13 13 15 15 10 13 13 11 7 8 2 3 10 7 7 8 7 9 11 12 12 16 18 21 19
10 8 13 11 6 10 6 2 10 9 10 5 7 6 3 12 13 8 10 9 11 14 13 9 13 10 5 8 7 2 5 8 7 7 6 6 8 11 13 14 18 19 18
19 7 18 15 12 7 9 5 10 14 11 5 3 4 4 7 10 12 12 8 7 10 13 14 14 9 8 7 5 7 7 9 3 6 6 6 6 9 12 14 17 21 22
28 19 13 14 14 15 8 11 13 10 12 7 5 4 5 4 6 6 9 11 8 6 11 15 12 13 11 10 7 4 3 1 2 2 2 6 9 11 16 19 22 24 26
32 32 19 19 11 12 18 17 13 12 11 14 10 7 2 1 2 2 3 3 4 2 3 12 8 9 9 7 7 5 6 6 4 5 8 11 13 16 19 21 24 26 26
32 29 28 23 20 14 14 24 18 17 10 22 13 12 9 7 5 5 6 2 0 1 3 9 3 5 3 7 8 5 8 7 8 10 13 13 18 20 20 22 23 25 26
17 18 28 26 21 16 17 24 27 21 20 20 20 14 11 11 13 10 9 10 9 7 7 12 11 10 9 9 8 8 11 12 14 15 17 20 19 21 23 23 24 26 21
12 15 18 26 29 23 13 17 25 30 25 25 25 21 20 19 16 18 16 11 10 10 9 13 17 17 14 14 14 13 14 17 20 19 15 20 21 25 25 24 26 20 20
9 10 11 20 19 25 20 22 19 22 27 27 28 26 22 19 19 17 20 16 14 10 16 14 17 23 23 21 20 22 19 22 26 20 22 25 27 26 26 24 23 21 22
19 14 11 9 21 21 22 21 22 18 23 30 30 31 21 23 22 17 17 17 14 8 8 11 17 20 25 22 20 23 22 22 24 23 28 31 29 25 23 23 23 22 22
12 7 9 8 8 16 20 21 22 22 20 21 22 26 19 24 24 22 20 23 22 19 20 17 17 23 29 26 28 27 26 31 35 32 30 25 25 26 22 24 24 22 20
12 18 17 12 7 12 20 24 18 20 21 20 18 17 16 22 26 26 26 25 25 23 24 26 28 26 31 27 32 33 30 34 37 30 25 25 23 24 27 26 24 23 21
22 13 16 20 12 10 23 24 27 27 23 22 19 20 18 23 25 27 27 27 34 34 33 36 34 32 29 33 36 31 33 28 25 25 22 23 29 33 31 27 26 26 23

GFSSE_250_spd_063.txt.gz
Wind_Speed
8 4 1 4 9 12 12 11 8 8 9 12 15 15 17 17 18 18 20 25 25 25 28 25 21 23 19 13 8 7 9 9 8 3 2 6 8 9 10 12 15 15 13
11 9 9 7 5 6 6 6 7 8 11 15 18 20 19 20 19 19 21 23 26 30 31 26 21 26 22 14 10 7 10 10 12 8 3 3 5 7 10 13 13 12 12
21 19 17 14 12 10 7 5 5 6 10 14 18 20 20 22 23 23 20 22 26 29 33 25 23 26 22 17 11 9 12 12 13 13 8 6 6 6 9 11 14 16 14
24 25 27 27 28 24 15 10 6 3 1 6 15 22 22 22 22 23 21 21 28 29 30 24 24 24 20 16 8 10 11 10 11 9 11 10 9 9 9 9 12 15 17
29 29 30 32 33 37 31 22 14 8 3 7 13 21 26 24 25 22 23 26 30 30 30 21 25 26 21 12 8 12 11 9 10 9 8 7 5 6 6 10 12 16 16
30 29 31 38 39 39 37 29 23 19 13 10 12 20 24 25 24 23 27 30 29 27 27 20 30 23 17 16 12 13 10 7 6 6 5 5 4 5 9 12 16 16 15
29 29 32 34 40 41 40 31 30 28 22 20 21 20 21 22 24 28 30 30 28 30 22 26 25 25 21 14 15 11 9 7 4 1 2 6 7 9 10 13 14 14 16
22 28 30 33 35 35 40 37 30 31 25 25 26 25 29 29 29 32 31 29 28 26 21 26 26 22 17 17 17 14 13 9 6 3 3 2 7 7 8 10 12 13 15
17 25 27 28 30 32 37 38 34 33 30 26 27 25 29 30 28 26 27 26 27 25 24 26 22 15 11 12 15 15 13 8 3 2 3 3 2 4 7 6 10 12 13
14 21 24 25 27 26 31 31 34 30 31 27 21 28 28 28 26 25 27 29 27 26 26 24 20 16 8 7 12 14 12 10 5 3 5 4 3 1 4 6 7 9 11
9 13 15 16 17 19 25 24 28 32 24 26 25 25 23 23 20 23 26 26 28 26 21 18 15 11 7 9 9 12 14 12 7 5 3 3 3 3 1 3 5 7 9
12 12 14 12 11 13 15 20 21 23 25 19 22 24 19 17 15 19 20 21 21 22 19 14 11 9 9 9 8 10 15 12 10 8 5 5 7 6 6 4 6 6 7
11 10 11 12 7 11 14 15 18 17 16 17 16 17 18 17 18 20 21 22 21 21 19 14 12 11 6 9 8 7 9 13 12 10 9 9 8 8 8 8 10 12 13
14 12 11 12 6 8 7 9 9 13 11 8 15 17 14 11 13 17 20 19 21 21 18 18 16 13 10 12 8 6 2 3 7 8 7 7 7 8 10 12 12 14 19
16 20 16 10 10 3 14 4 3 8 10 9 2 6 10 11 10 15 17 17 18 17 16 19 18 13 11 9 9 8 5 4 6 10 9 4 3 6 6 6 10 9 14
24 18 17 15 13 10 5 8 8 8 7 10 1 9 10 11 10 11 16 18 20 19 16 14 16 16 11 9 10 6 7 7 7 11 9 4 1 1 5 10 13 16 19
16 25 19 16 17 9 5 10 6 6 3 6 5 5 6 7 8 11 12 9 14 17 19 18 18 15 15 9 10 5 4 2 4 8 5 2 2 5 9 11 13 16 20
14 22 30 25 14 12 13 13 14 13 10 6 10 6 4 2 4 4 5 4 6 7 13 16 19 14 11 11 11 8 7 7 6 6 2 5 7 10 14 17 19 21 21
12 17 28 30 24 17 19 15 15 19 14 14 11 15 12 8 5 5 5 4 4 4 6 14 16 10 9 8 10 9 10 10 7 5 7 9 12 15 19 18 23 22 23
18 12 18 22 24 22 16 27 21 24 21 20 18 19 21 14 12 11 10 9 8 6 6 10 11 10 11 9 9 9 10 11 12 12 14 16 17 18 25 27 26 21 24
16 13 13 20 22 22 17 15 26 34 27 23 24 22 24 21 19 17 15 13 10 9 10 11 12 14 15 16 15 16 14 16 17 17 18 15 23 23 26 28 28 27 25
9 14 9 14 21 24 23 24 20 25 33 35 30 29 27 26 21 22 19 17 16 14 13 14 13 14 19 20 20 19 18 19 19 20 22 24 24 24 26 26 24 24 22
16 12 17 15 14 28 27 25 25 24 22 30 35 35 30 27 26 25 23 18 16 15 11 7 8 13 16 20 25 23 24 22 22 21 24 26 28 28 29 25 24 23 23
16 10 6 12 17 19 28 27 25 24 23 23 26 29 29 25 24 27 27 21 18 21 22 15 13 12 15 21 24 26 26 26 26 25 27 38 36 29 25 22 23 25 25
13 13 10 12 15 19 23 27 28 25 24 27 24 25 21 22 26 28 31 25 20 25 29 26 23 21 19 21 26 30 30 26 26 29 32 41 30 24 23 26 30 29 29
20 21 16 13 20 19 25 29 31 27 22 24 28 27 25 25 25 27 29 29 25 24 30 33 32 32 33 32 29 31 32 33 30 32 33 29 26 28 31 35 36 36 30

GFSSE_250_spd_069.txt.gz
Wind_Speed
27 23 20 12 8 10 14 17 21 23 23 23 25 26 27 22 19 19 22 23 23 21 19 24 17 15 14 12 8 6 6 8 6 3 6 8 10 11 14 15 17 11 9
28 27 23 17 14 10 11 12 16 17 18 17 16 15 17 20 21 20 21 23 24 23 20 25 15 19 14 12 8 5 11 9 10 9 10 10 10 12 14 16 16 15 9
29 31 29 25 20 15 10 11 16 18 19 16 13 15 17 18 20 20 21 22 24 23 25 26 16 16 15 13 6 9 15 16 14 14 13 14 12 12 13 15 16 17 8
29 33 34 29 27 21 17 9 6 10 15 18 16 17 17 18 19 19 21 24 24 26 28 29 18 28 16 12 6 14 13 10 10 10 9 11 12 11 12 14 16 18 11
26 31 34 39 30 27 21 15 5 4 5 15 19 19 19 19 18 18 19 24 27 30 29 27 14 32 18 11 9 14 10 9 8 6 6 8 11 11 12 15 16 18 15
23 30 32 39 36 30 28 20 14 7 2 10 19 20 20 19 20 18 20 25 29 30 27 24 20 29 17 11 12 12 10 9 7 5 7 8 11 11 11 13 14 16 18
18 27 32 35 38 36 34 33 25 18 13 12 16 20 20 21 22 22 22 24 31 31 28 23 22 19 15 11 13 5 6 4 5 5 6 5 6 7 11 13 13 15 16
13 22 28 31 33 37 37 36 31 23 19 16 15 17 19 22 23 23 24 24 27 32 27 20 27 21 17 11 15 7 4 2 1 2 2 3 5 4 6 12 15 15 16
9 15 19 18 31 30 35 34 32 26 22 20 15 16 19 23 22 24 22 23 23 28 20 20 26 23 17 14 15 10 8 6 3 2 2 4 0 3 6 9 9 13 14
6 11 13 16 11 24 28 30 31 25 23 20 17 18 19 22 22 19 17 22 25 22 19 22 25 22 15 12 15 15 9 8 6 5 5 5 6 3 5 4 4 7 9
2 4 11 15 11 15 19 25 24 23 20 19 19 19 19 23 23 21 22 18 20 20 21 26 23 19 15 17 18 14 13 10 9 10 8 4 5 5 4 1 3 5 6
9 2 7 8 8 7 12 19 19 18 15 15 17 17 15 17 20 21 21 19 20 24 23 25 21 17 14 10 11 15 16 15 15 13 10 7 7 6 4 3 3 6 9
13 6 7 7 8 4 6 12 14 11 13 9 7 10 11 13 18 18 20 20 20 24 24 21 18 16 15 13 11 12 14 16 16 15 16 11 8 6 6 6 2 6 6
13 15 15 9 8 7 3 6 8 11 8 10 5 3 7 14 13 19 22 23 19 18 19 18 17 13 12 12 11 11 11 9 19 18 17 16 14 13 10 5 5 9 11
9 14 18 17 11 10 3 3 2 3 6 6 9 3 3 14 16 17 20 24 22 21 18 16 14 13 13 11 9 8 9 7 6 7 12 13 11 9 7 6 1 2 11
17 13 18 18 17 13 8 8 4 2 1 4 3 2 1 6 15 18 19 20 19 19 20 21 17 15 17 14 12 12 14 15 16 16 15 11 8 9 8 5 3 7 7
35 20 18 24 24 19 17 13 8 9 5 2 4 5 3 3 7 12 19 22 22 20 19 19 21 21 20 17 15 16 17 14 12 11 9 10 9 8 4 5 10 12 14
32 32 15 22 29 21 23 18 14 13 9 7 5 9 6 5 6 7 13 16 20 22 23 21 20 18 17 20 16 14 13 9 3 4 6 6 7 8 9 10 14 14 17
33 30 21 17 19 27 23 25 21 22 18 13 10 10 12 11 9 9 8 9 12 16 21 23 23 22 19 18 18 15 14 12 10 10 10 11 11 9 10 13 15 17 18
30 31 26 19 18 23 27 30 28 28 23 19 16 15 16 14 16 14 13 13 11 11 13 13 20 22 25 21 18 18 16 13 15 16 13 13 15 14 15 6 24 25 22
33 28 30 20 13 23 33 37 34 30 27 25 26 24 20 19 18 20 16 17 14 13 13 12 11 17 18 18 20 20 17 18 16 16 20 17 17 17 15 19 22 21 26
35 31 29 24 16 18 26 33 37 39 34 30 31 28 27 23 25 23 24 22 20 17 14 15 15 15 16 20 20 19 18 18 17 20 22 19 21 22 24 22 27 31 30
36 35 30 29 20 19 17 27 30 38 40 37 34 35 34 29 26 27 27 29 24 20 19 18 19 19 21 23 23 22 22 21 21 18 22 25 27 24 24 24 28 33 34
39 37 32 26 23 20 24 24 26 29 36 37 40 42 41 41 36 33 32 31 30 24 24 22 22 23 22 25 25 23 17 18 15 20 32 30 24 28 24 31 35 38 35
41 39 34 24 25 21 20 16 22 32 30 38 33 34 38 39 42 41 38 37 35 30 28 29 25 25 23 21 19 21 16 22 24 27 26 35 39 42 36 35 47 26 29
43 42 36 25 27 28 26 17 18 19 28 29 34 38 36 38 41 35 49 40 37 34 35 32 33 32 32 30 28 23 24 28 29 29 31 41 46 33 30 35 38 27 34

GFSSE_250_spd_072.txt.gz
Wind_Speed
28 25 21 17 7 7 11 15 19 21 25 28 28 29 30 34 31 25 27 28 24 20 19 18 16 14 16 9 8 5 5 6 4 4 6 8 10 11 12 13 14 10 10
28 29 27 27 23 13 5 11 15 18 20 21 21 22 25 26 30 29 28 23 21 21 22 19 15 14 14 10 6 2 7 5 6 7 6 8 10 10 13 15 16 10 10
30 31 32 32 30 24 19 8 8 13 14 15 15 16 16 18 21 24 23 23 23 24 22 22 17 16 12 10 4 7 9 11 14 11 11 8 10 11 13 15 17 11 10
29 35 37 33 33 28 24 19 8 7 12 14 13 11 15 18 19 20 21 23 23 22 22 23 18 17 13 10 7 12 12 11 11 10 9 9 10 10 14 18 19 13 10
31 35 36 38 36 32 30 24 14 2 6 13 15 16 17 16 17 18 22 22 23 23 24 24 21 16 13 10 9 13 9 8 7 7 7 8 9 10 13 17 19 17 12
15 32 34 38 40 38 37 35 23 7 6 14 18 19 20 17 17 15 20 23 23 25 29 26 14 13 21 8 12 12 11 9 7 7 6 8 9 10 11 14 16 17 16
16 20 25 34 38 39 38 39 33 17 9 15 19 21 20 20 20 18 17 21 26 28 30 21 16 17 16 8 15 11 8 7 6 6 4 4 7 10 12 14 15 17 16
13 23 25 22 29 36 38 35 35 27 16 12 19 21 21 22 21 17 18 21 28 29 27 22 21 18 14 12 12 5 2 3 2 1 2 2 7 6 7 10 13 13 15
16 23 30 20 21 24 33 34 34 30 22 12 14 19 18 18 18 17 19 22 28 28 25 21 18 18 15 15 13 5 5 6 4 2 3 4 2 4 6 4 7 8 12
9 8 27 17 16 18 23 28 30 29 28 18 13 14 14 17 16 18 21 22 25 28 24 23 16 21 17 15 15 8 9 6 5 4 3 4 6 2 3 3 6 6 11
2 8 8 10 7 13 11 19 24 25 24 24 15 13 15 16 16 16 17 18 19 24 20 17 20 22 17 14 12 8 10 11 9 6 7 6 5 3 5 3 6 6 14
6 5 8 3 4 4 13 10 18 21 19 20 19 13 12 15 17 15 19 17 19 19 18 19 22 19 15 14 14 13 11 13 12 8 8 11 8 6 4 4 3 3 5
6 10 9 5 3 3 8 13 5 12 12 14 12 12 12 13 15 16 15 14 16 15 15 21 20 18 12 10 8 10 11 13 14 11 10 12 9 7 6 6 3 7 6
20 9 14 9 11 6 1 6 8 6 8 3 9 8 6 9 11 14 13 16 14 17 19 20 18 16 13 12 13 14 11 13 12 14 17 17 14 12 12 10 7 9 11
27 21 13 19 17 13 8 1 3 2 5 6 7 5 3 9 9 16 18 16 15 19 20 18 17 16 17 15 14 13 9 7 6 7 7 8 11 9 8 7 5 4 5
28 22 22 18 17 17 12 9 4 3 1 3 1 4 4 7 12 13 16 17 18 18 16 17 16 13 12 11 8 10 11 12 14 14 15 15 8 7 6 2 4 7 8
34 26 15 17 22 21 19 14 14 10 6 5 4 6 4 4 12 16 17 20 20 18 18 18 19 18 17 17 18 16 15 14 14 9 9 6 7 7 5 3 6 9 11
34 32 24 15 19 27 29 26 23 18 14 10 5 6 7 5 7 12 16 20 23 23 21 21 21 22 22 21 20 16 14 15 5 1 1 6 8 8 7 9 9 12 13
34 31 30 19 17 20 30 30 26 23 19 17 12 9 10 9 8 7 8 12 16 19 21 21 23 24 21 17 18 17 15 12 9 7 7 9 9 7 9 12 15 18 15
35 30 32 26 18 20 23 33 30 28 25 23 20 14 14 12 10 11 13 12 12 13 16 17 20 22 25 26 19 16 16 13 13 14 13 15 14 14 11 13 19 13 17
37 32 29 29 26 18 18 29 31 33 29 31 25 21 20 16 16 15 16 17 18 16 15 14 14 15 19 20 20 21 18 18 14 13 11 15 20 20 13 13 19 19 19
38 34 28 30 24 21 22 17 36 36 37 42 34 27 27 24 21 22 25 22 22 21 17 16 14 14 13 16 16 18 18 17 15 14 17 15 18 17 19 18 21 25 21
40 36 30 26 25 20 24 21 23 29 39 39 36 34 34 31 27 27 27 31 28 26 23 18 15 17 18 19 21 21 21 20 19 17 18 17 16 21 22 20 16 17 28
41 37 33 29 24 19 23 28 25 25 29 37 47 43 38 37 36 31 33 34 32 26 27 24 20 18 21 20 23 24 24 23 22 19 19 19 28 29 31 28 31 33 32
41 39 35 32 25 20 24 30 29 28 28 32 33 41 45 44 42 38 35 35 32 33 32 31 22 25 20 22 25 23 24 26 17 17 23 21 23 28 32 35 38 37 37
44 45 40 35 28 21 23 32 31 27 25 26 34 38 44 53 50 45 43 45 46 41 35 35 29 26 25 30 29 26 25 28 22 19 24 28 29 32 41 42 45 45 37

GFSSE_250_spd_075.txt.gz
Wind_Speed
33 32 29 28 22 15 9 13 16 19 24 29 32 32 33 31 28 25 23 19 26 17 20 21 12 10 15 8 10 5 6 6 2 1 2 2 6 9 12 11 11 9 10
37 39 35 33 33 22 13 6 12 14 15 19 25 26 27 29 25 21 24 23 25 19 17 17 11 16 15 8 7 4 6 7 3 3 3 3 7 11 14 13 11 11 11
36 39 43 43 36 34 20 10 3 10 12 15 18 21 23 23 24 23 26 29 25 24 21 16 16 18 13 11 6 4 9 8 8 6 4 5 10 14 16 16 11 12 12
30 31 36 40 43 39 35 16 4 3 9 10 11 13 13 17 21 24 26 27 29 25 24 19 21 17 13 8 6 12 14 13 9 6 6 9 9 13 15 18 14 12 11
20 28 26 31 40 42 43 29 10 8 5 11 9 7 14 13 17 19 24 27 28 26 22 24 23 19 12 10 14 14 12 9 6 5 5 8 8 11 13 17 17 12 11
13 25 25 27 34 41 41 38 21 9 8 13 13 15 16 14 17 18 20 23 25 22 22 25 26 21 12 8 15 11 9 8 5 6 7 8 7 11 14 17 17 16 13
14 20 23 22 25 36 41 37 32 16 12 15 17 16 17 16 17 19 20 21 22 22 28 25 25 14 14 10 16 13 8 6 6 5 4 4 7 10 13 14 15 16 13
11 20 22 19 23 27 34 35 34 21 11 13 16 17 18 16 17 19 21 21 21 25 29 24 21 11 16 17 17 12 5 5 3 2 2 3 4 4 6 8 9 12 17
21 9 20 17 19 20 25 32 31 27 14 13 17 16 15 15 15 16 20 23 27 31 29 21 18 16 18 16 13 6 2 4 2 4 3 4 2 3 2 5 7 9 12
6 9 20 16 15 19 22 25 28 29 20 11 12 14 14 14 12 16 19 23 31 32 26 23 21 18 15 16 13 6 1 4 3 2 3 5 4 1 2 2 5 6 9
13 13 14 15 12 14 19 18 22 25 24 14 10 11 18 17 15 15 18 24 30 29 26 24 22 14 16 17 11 9 5 7 8 5 4 2 4 3 4 2 1 3 5
17 12 13 12 6 11 13 12 15 20 20 20 15 12 12 14 13 12 16 20 27 27 24 21 19 18 19 17 15 12 7 7 8 10 6 6 7 4 4 4 4 2 5
24 16 12 9 9 7 8 12 11 12 12 12 13 13 9 11 11 12 15 16 22 27 19 19 18 20 19 13 11 5 7 9 9 9 9 8 7 6 7 7 8 5 4
19 17 15 14 13 8 3 7 6 9 8 7 7 7 7 9 12 16 14 13 17 17 19 16 19 19 14 12 7 7 10 10 12 11 10 13 14 11 11 11 8 9 6
24 17 15 13 10 14 10 3 3 1 4 4 7 6 6 7 8 9 10 18 16 14 15 18 19 17 15 12 10 10 8 9 6 5 7 7 9 9 7 6 8 3 4
31 23 16 11 14 12 14 12 9 7 2 1 1 4 4 8 9 10 11 12 11 13 16 19 17 17 16 13 10 11 9 11 12 11 13 13 13 9 8 8 7 2 6
30 27 20 11 11 12 15 21 15 13 9 5 7 6 1 2 10 13 15 15 14 14 17 17 15 14 14 11 12 15 14 11 12 12 11 6 9 10 9 10 8 5 9
33 28 28 17 9 13 15 21 24 20 18 13 8 10 10 7 4 12 14 14 16 16 18 18 18 18 19 20 19 19 16 12 11 8 6 5 8 9 10 9 9 11 11
33 32 28 26 15 13 15 17 26 28 23 20 16 12 11 10 8 6 8 17 21 19 21 22 22 22 21 21 20 14 12 14 11 9 8 8 10 10 11 11 13 16 15
37 39 33 30 25 14 18 17 20 29 27 25 24 19 16 16 14 11 10 11 16 17 22 26 24 23 22 21 20 18 16 16 13 14 13 13 13 14 13 9 16 20 20
41 41 36 33 31 24 15 19 17 27 31 31 29 27 20 19 18 14 13 15 15 18 17 17 19 17 15 18 21 22 22 18 14 15 17 17 15 18 17 19 17 23 24
40 39 35 33 34 30 20 21 21 25 35 34 34 32 26 24 22 22 12 18 20 21 22 19 18 15 15 15 16 17 20 19 18 18 19 19 15 15 14 10 16 23 24
39 38 36 35 36 32 25 21 23 20 29 40 36 36 34 30 25 23 25 20 27 25 26 21 21 20 19 18 18 16 18 19 18 18 21 19 19 14 13 17 25 25 25
42 39 36 37 38 35 28 22 26 29 25 28 40 44 46 41 36 34 30 28 28 28 28 27 23 26 22 18 20 18 19 20 19 23 23 21 19 19 14 24 29 28 29
42 41 39 40 38 36 30 24 25 30 31 28 35 43 44 47 44 38 37 36 29 38 35 31 29 30 25 23 21 21 19 23 22 26 23 25 20 21 20 21 28 37 39
45 42 44 42 41 37 33 25 25 32 33 31 28 28 37 48 48 46 44 42 43 38 29 31 33 28 29 24 26 24 24 26 28 29 29 29 23 25 32 33 32 37 42